Regional Weather Roundup
Issued by NWS Charleston, WV

Home | Current Version | Previous Version | Graphics & Text | Print | Product List | Glossary On
Versions: 1 2 3 4 5 6 7 8 9 10 11 12 13 14 15 16 17 18 19 20 21 22 23 24 25 26 27
000
ASUS41 KRLX 231810
RWRRLX
West Virginia Regional Weather Roundup
National Weather Service Charleston WV
200 PM EDT FRI JUN 23 2017

Note: "fair" indicates few or no clouds below 12,000 feet with no
significant weather and/or obstructions to visibility.

WVZ003-231900-
Northern Panhandle of West Virginia

CITY           SKY/WX    TMP DP  RH WIND       PRES   REMARKS
WHEELING       LGT RAIN  75  72  90 SW14G20   29.72F
$$

WVZ009-231900-
Northwest West Virginia

CITY           SKY/WX    TMP DP  RH WIND       PRES   REMARKS
PARKERSBURG    PTSUNNY   84  71  65 SW16G24   29.75F
$$

WVZ006-231900-
Western West Virginia

CITY           SKY/WX    TMP DP  RH WIND       PRES   REMARKS
HUNTINGTON     MOSUNNY   84  70  62 SW17G31   29.78F
$$

WVZ015-231900-
West Central West Virginia

CITY           SKY/WX    TMP DP  RH WIND       PRES   REMARKS
CHARLESTON     CLOUDY    82  68  62 SW20G32   29.82F
$$

WVZ022-031-231900-
North Central West Virginia

CITY           SKY/WX    TMP DP  RH WIND       PRES   REMARKS
CLARKSBURG     CLOUDY    82  70  66 SW17G25   29.78F
MORGANTOWN     PTSUNNY   79  70  74 S10G22    29.78S
$$

WVZ025-035-042-045-231900-
Southern West Virginia

CITY           SKY/WX    TMP DP  RH WIND       PRES   REMARKS
BECKLEY        CLOUDY    72  66  81 SW15G26   29.96F
LOGAN          CLOUDY    77  70  78 S5G16     29.88F
BLUEFIELD      CLOUDY    72  62  71 W20G31    30.00F
LEWISBURG      LGT RAIN  70  66  86 SW9G18    29.96F
$$

WVZ047-231900-
Northern Mountains of West Virginia

CITY           SKY/WX    TMP DP  RH WIND       PRES   REMARKS
ELKINS         CLOUDY    80  66  62 SW10G18   29.87F
$$

WVZ052-231900-
Eastern Panhandle of West Virginia

CITY           SKY/WX    TMP DP  RH WIND       PRES   REMARKS
MARTINSBURG    CLOUDY    84  71  65 S13       29.73F
PETERSBURG     CLOUDY    86  69  56 SW12G18   29.78F
$$




USA.gov is the U.S. government's official web portal to all federal, state and local government web resources and services.